EUTELSAT HOTBIRD 13G

Last updated on Wed Sep 09 2026 00:03:03 GMT+0000 (Coordinated Universal Time)

1 54225U 22146A 26250.87739888 .00000067 00000+0 00000+0 0 9997 2 54225 0.0534 235.5618 0002202 306.4781 133.7788 1.00270829 8292
UTC large
Height (km)
Speed (km/s)
/
Latitude / Longitude
Inclination (degrees)
Orbital Period (minutes)
Azimuth
Elevation
Range (km)
Doppler Factor

Next 0 passes for location: London (51.5072 / 0.1276)

No passes found over London.
EUTELSAT HOTBIRD 13G